User: anonymous   Login
Location: Norwich
(52.6280°N, 1.3030°E)
Time: 03:01:37
(UTC+00:00)
Language:

Meteor 1-22 Rocket - Orbit

View from above orbital plane
View from above orbital plane
View from above satellite
View from above satellite

Ground track
Ground track

The orbit data is extracted from the following two-line orbital elements,

1 08294U 75087B   17022.95423577 -.00000098  00000-0 -61766-4 0  9993
2 08294  81.2156 164.1659 0107266  91.9827 269.3631 14.08586326124402
Epoch (UTC): 22 January 2017 22:54:05
Eccentricity: 0.0107266
inclination: 81.2156°
perigee height: 786 km
apogee height: 942 km
right ascension of ascending node: 164.1659°
argument of perigee: 91.9827°
revolutions per day: 14.08586326
mean anomaly at epoch: 269.3631°
orbit number at epoch: 12440

The dashed part of the orbit path shows where the satellite is in the earth's shadow,  

DLR